RS8S (SXC3-2111 RESHUC*) (53382 NORAD) Tracking and Keplerian Element Data

This shows tracking and keplerian element data for the satellite.

Feedback or suggestion? Click here.




ElementValue
Catalog53382
NameRS8S (SXC3-2111 RESHUC*)
Epoch Orbit745
Epoch Day270.19638558
Epoch Year2022
RAAN171.3438
Inclination97.4312
Eccentricity0.0002216
Argument of Perigee298.7067
Mean Anonmoly164.7245
Mean Motion15.25676858
Decay Rate7.669E-05
L11 53382U 22096N 22270.19638558 .00007669 00000+0 30395-3 0 9998
L22 53382 97.4312 171.3438 0002216 298.7067 164.7245 15.25676858 7454

Live tracking and technical data element details for RS8S (SXC3-2111 RESHUC*) (NORAD 53382). RS8S (SXC3-2111 RESHUC*) can be tracked NOW for your location showing map with azimuth and elevation plus other details from your city location.

Track the satellite on the map from your city or location and see movement details for azimuth, elevation, latitude, longitude, range, height, and movement on the map or in text.







IsCatalogInMostPopularTable: catalog: 53382, numindb: 3
Update: records affected: 1



GetName: 53382 RS8S (SXC3-2111 RESHUC*)

Hit Count: updated at: Wed, 28 Sep 2022 21:39:47 GMT